GW0787 Weather Reports


Display with metric or nautical units.
time (UTC)temp
F
wind
direction
speed
MPH
gust
MPH
rain 1hr
in
rain 24hr
in
rain mn
in
humidity
%
barometer
mb
20260903161529 44 157 0.0 0.0 0.00 0.06 0.01 90 1010.1
20260903160032 42 157 0.0 0.0 0.00 0.06 0.01 90 1010.1
20260903154533 41 157 0.0 0.0 0.00 0.06 0.01 90 1010.0
20260903153024 40 157 0.0 0.0 0.00 0.06 0.01 91 1010.0
20260903151523 39 157 0.0 0.0 0.00 0.06 0.01 91 1010.0
20260903150026 39 157 0.0 0.0 0.00 0.06 0.01 91 1009.9
20260903144539 39 156 0.0 0.0 0.00 0.06 0.01 91 1009.9
20260903143032 39 157 0.0 0.0 0.00 0.06 0.01 91 1009.9
20260903141519 39 157 0.0 0.0 0.00 0.06 0.01 91 1009.9
20260903140022 39 157 0.0 0.0 0.00 0.06 0.01 91 1009.8
20260903134517 39 157 0.0 0.0 0.00 0.06 0.01 91 1009.9
20260903133014 39 157 0.0 0.0 0.00 0.06 0.01 91 1009.7
20260903131511 40 157 0.0 1.0 0.00 0.06 0.01 91 1009.5
20260903130008 40 156 0.0 0.0 0.00 0.06 0.01 91 1009.3
20260903124505 41 157 0.0 0.0 0.00 0.06 0.01 91 1009.1
20260903123002 41 156 0.0 1.0 0.00 0.06 0.01 91 1009.0
20260903121611 42 157 0.0 1.0 0.00 0.06 0.01 91 1009.0
20260903120104 42 157 0.0 1.0 0.00 0.06 0.01 91 1008.8
20260903114556 43 157 0.0 2.0 0.00 0.06 0.01 91 1008.9
20260903113131 44 157 0.0 0.0 0.00 0.06 0.01 91 1008.9
20260903111550 44 157 0.0 0.0 0.00 0.06 0.01 91 1008.9
20260903110048 45 156 0.0 3.0 0.00 0.06 0.01 91 1008.7
20260903104557 46 156 0.0 0.0 0.00 0.06 0.01 91 1008.6
20260903103043 46 156 0.0 2.0 0.00 0.06 0.01 91 1008.6
20260903101538 47 94 0.0 3.0 0.00 0.06 0.01 91 1008.5
20260903100039 48 45 0.0 2.0 0.00 0.06 0.01 90 1008.3
20260903094546 49 176 0.0 3.0 0.00 0.06 0.01 90 1008.0
20260903093033 49 185 0.0 4.0 0.00 0.06 0.01 90 1008.0
20260903091542 50 150 0.0 2.0 0.00 0.06 0.01 90 1007.8
20260903090026 50 147 1.0 5.0 0.00 0.06 0.01 90 1007.8
20260903084524 50 216 0.0 3.0 0.00 0.06 0.01 90 1008.0
20260903083023 50 154 1.0 3.0 0.00 0.06 0.01 90 1008.0
20260903081524 50 218 1.0 3.0 0.00 0.06 0.01 90 1008.0
20260903080019 51 175 0.0 1.0 0.01 0.06 0.01 90 1007.9
20260903074517 51 176 0.0 1.0 0.01 0.06 0.01 90 1007.6
20260903073028 51 176 0.0 2.0 0.02 0.06 0.01 90 1007.6
20260903071520 51 177 0.0 3.0 0.02 0.06 0.01 90 1007.3
20260903070012 52 181 0.0 1.0 0.02 0.05 0.00 90 1007.3
20260903064509 52 181 0.0 2.0 0.02 0.05 0.05 90 1007.3
20260903063011 52 129 1.0 4.0 0.01 0.04 0.04 89 1007.2
20260903061509 52 198 0.0 3.0 0.01 0.04 0.04 89 1007.2
20260903060008 53 198 0.0 0.0 0.00 0.03 0.03 89 1006.9
20260903054507 53 199 0.0 2.0 0.00 0.03 0.03 89 1006.9
20260903053014 53 106 1.0 5.0 0.00 0.03 0.03 88 1006.8
20260903051507 53 142 0.0 9.0 0.00 0.03 0.03 88 1006.8
20260903050006 53 112 2.0 4.0 0.00 0.03 0.03 89 1006.7
20260903044506 53 190 0.0 2.0 0.00 0.03 0.03 90 1006.7
20260903043005 53 190 0.0 1.0 0.00 0.03 0.03 90 1006.6
20260903041508 53 190 0.0 1.0 0.00 0.03 0.03 89 1006.4
20260903040012 54 191 0.0 0.0 0.00 0.03 0.03 89 1006.2
20260903034504 54 190 0.0 1.0 0.00 0.04 0.03 89 1006.0
20260903033006 54 190 0.0 0.0 0.00 0.04 0.03 89 1005.8
20260903031502 54 190 0.0 0.0 0.00 0.04 0.03 89 1005.7
20260903030002 54 190 0.0 2.0 0.01 0.04 0.03 88 1005.4
20260903024501 55 114 1.0 4.0 0.01 0.17 0.03 88 1005.0
20260903023100 55 130 0.0 3.0 0.02 0.17 0.03 88 1004.9
20260903021600 55 127 0.0 2.0 0.02 0.17 0.03 87 1005.1
20260903020059 57 129 0.0 6.0 0.01 0.16 0.02 83 1005.6
20260903014558 58 156 0.0 3.0 0.01 0.16 0.02 77 1005.4
20260903014500 58 156 0.0 3.0 0.01 0.16 0.02 77 1005.4
20260903013108 61 172 0.0 11.0 0.00 0.15 0.01 62 1004.9
20260903011558 62 318 0.0 11.0 0.00 0.15 0.01 55 1004.6
20260903010056 63 154 2.0 8.0 0.00 0.15 0.01 51 1004.2
20260903004559 63 208 5.0 15.0 0.00 0.15 0.01 51 1003.9
20260903003056 64 219 4.0 17.0 0.00 0.15 0.01 48 1003.9
20260903001552 65 239 4.0 10.0 0.00 0.15 0.01 50 1003.7
20260903000051 65 125 2.0 8.0 0.00 0.15 0.01 49 1003.5
20260902234607 65 120 0.0 6.0 0.00 0.15 0.01 54 1003.4
20260902233054 65 231 2.0 8.0 0.00 0.15 0.01 50 1003.4
20260902231553 65 246 1.0 6.0 0.00 0.15 0.01 55 1003.4
20260902230054 64 229 5.0 17.0 0.00 0.15 0.01 53 1003.4
20260902224607 63 214 1.0 5.0 0.00 0.15 0.01 73 1003.4
20260902223048 65 137 1.0 11.0 0.00 0.15 0.01 61 1003.3
20260902221547 67 219 6.0 10.0 0.00 0.15 0.01 49 1002.9
20260902220050 67 269 1.0 15.0 0.00 0.15 0.01 48 1002.9
20260902214544 68 211 4.0 12.0 0.00 0.15 0.01 46 1003.0
20260902213045 69 245 3.0 9.0 0.00 0.15 0.01 48 1003.0
20260902211542 71 216 5.0 13.0 0.00 0.15 0.01 45 1003.1
20260902210041 72 263 2.0 12.0 0.00 0.15 0.01 41 1003.2
20260902204541 73 273 1.0 11.0 0.00 0.15 0.01 41 1003.2
20260902203037 72 212 1.0 11.0 0.00 0.15 0.01 44 1003.4
20260902201537 70 326 0.0 4.0 0.00 0.15 0.01 43 1003.4
20260902200048 69 301 2.0 9.0 0.00 0.15 0.01 45 1003.6
20260902194530 69 15 2.0 5.0 0.00 0.15 0.01 49 1004.0
20260902193023 67 220 2.0 4.0 0.00 0.15 0.01 49 1004.3
20260902191520 66 241 0.0 3.0 0.00 0.15 0.01 53 1004.6
20260902190030 66 48 1.0 5.0 0.00 0.15 0.01 54 1004.9
20260902184518 67 314 2.0 5.0 0.01 0.15 0.01 48 1005.0
20260902183014 66 85 2.0 7.0 0.01 0.15 0.01 51 1005.2
20260902181510 65 47 3.0 7.0 0.01 0.15 0.01 52 1005.2
20260902180007 64 99 3.0 11.0 0.01 0.15 0.01 56 1005.2
20260902174501 63 87 3.0 12.0 0.00 0.14 0.00 60 1005.4
20260902173058 62 100 3.0 12.0 0.00 0.14 0.00 63 1005.5
20260902171554 60 131 3.0 13.0 0.00 0.14 0.00 67 1005.4
20260902170050 58 79 1.0 9.0 0.00 0.14 0.00 76 1005.5
20260902164546 57 70 3.0 6.0 0.00 0.14 0.00 85 1005.6
20260902163044 57 166 1.0 3.0 0.00 0.14 0.00 88 1005.7